Location: Newark
(36.0797°N, 3.9744°E)
Time: 19:44:35
(UTC+00:00)

Vanguard 2 Rocket - Pass Details

Date: 09 December 2019
Orbit: 554 x 3326 km, 32.9° (Epoch: 21 January)

Event Time Altitude Azimuth Distance (km) Brightness Sun altitude
Rises 16:41:09 0° 229° (SW) 7,025 13.4 -2.9°
Reaches altitude 10° 16:46:34 10° 224° (SW) 5,721 12.4 -3.9°
Maximum altitude 17:01:26 45° 159° (SSE) 2,592 9.2 -6.6°
Drops below altitude 10° 17:10:22 10° 90° (E) 3,522 9.3 -8.3°
Enters shadow 17:11:04 - 88° (E) 3,702 9.4 -8.4°
Sets 17:12:52 0° 84° (E) 4,202 - -8.8°
